Mecheria, Algeria

3:09 AM CET on August 20, 2019 (GMT +0100)
Mecheria

Weather History for DAAY - June, 2019

Change the Weather History Date:

Tuesday, June 4, 2019

  Actual Average Record
Temperature  
Mean Temperature 80 °F -  
Max Temperature 97 °F - - ()
Min Temperature 63 °F - - ()
Cooling Degree Days 15    
Growing Degree Days 30 (Base 50)    
Moisture  
Dew Point 43 °F    
Average Humidity 26    
Maximum Humidity 47    
Minimum Humidity 6    
Precipitation  
Precipitation 0.00 in - - ()
Sea Level Pressure  
Sea Level Pressure 30.13 in    
Wind  
Wind Speed 8 mph ()    
Max Wind Speed 23 mph    
Max Gust Speed 34 mph    
Visibility 5.9 miles    
Events      
T = Trace of Precipitation, MM = Missing Value Source: Averaged Metar Reports

Daily Weather History Graph

Daily Weather History Graph

Search for Another Location

Airport or City:

Astronomy

Jun. 04, 2019 Rise Set
Actual Time 5:51 AM CET 8:07 PM CET
Civil Twilight 5:22 AM CET 8:36 PM CET
Nautical Twilight 4:47 AM CET 9:11 PM CET
Astronomical Twilight 4:09 AM CET 9:49 PM CET
Moon 6:46 AM CET (6/4) 9:20 PM CET (6/4)
Length of Visible Light 15h 13m
Length of Day
14h 16m
New Moon, 1% of the Moon is Illuminated
Jun 4
New Moon
Jun 10
First Quarter
Jun 17
Full
Jun 25
Last Quarter
Jul 2
New

Hourly Weather History & Observations

Time (CET) Temp. Dew Point Humidity Pressure Visibility Wind Dir Wind Speed Gust Speed Precip Events Conditions
12:00 AM 73.4 °F 39.2 °F 29% 30.21 in - North 11.5 mph - N/A   Clear
1:00 AM 71.6 °F 41.0 °F 33% 30.21 in - North 4.6 mph - N/A   Clear
2:00 AM 66.2 °F 39.2 °F 37% 30.18 in - Calm Calm - N/A   Clear
3:00 AM 64.4 °F 41.0 °F 42% 30.18 in - Calm Calm - N/A   Clear
6:00 AM 66.2 °F 42.8 °F 43% 30.15 in - Calm Calm - N/A   Clear
7:00 AM 66 °F 44 °F 33%  in 6 mi SSW 9.2 mph - -   Scattered Clouds
7:00 AM 66.2 °F 44.6 °F 46% 30.18 in - SSW 9.2 mph - N/A   Clear
8:00 AM 71.6 °F 46.4 °F 41% 30.15 in - SSW 9.2 mph - N/A   Clear
9:00 AM 80.6 °F 48.2 °F 32% 30.15 in - SSW 9.2 mph - N/A   Clear
10:00 AM 85 °F 46 °F 16%  in 6 mi SW 9.2 mph - -   Clear
10:00 AM 84.2 °F 46.4 °F 27% 30.15 in - SW 9.2 mph - N/A   Clear
11:00 AM 87.8 °F 42.8 °F 21% 30.18 in - SSW 11.5 mph - N/A   Clear
12:00 PM 89.6 °F 41.0 °F 18% 30.18 in - SSW 16.1 mph - N/A   Clear
1:00 PM 93 °F 41 °F 9%  in 6 mi West 13.8 mph - -   Clear
1:00 PM 93.2 °F 41.0 °F 16% 30.15 in - West 13.8 mph - N/A   Clear
2:00 PM 95.0 °F 37.4 °F 13% 30.12 in 6.2 mi West 18.4 mph - N/A   Scattered Clouds
3:00 PM 96.8 °F 37.4 °F 13% 30.09 in 6.2 mi SW 6.9 mph - N/A   Scattered Clouds
4:00 PM 96 °F 37 °F 6%  in 6 mi WNW 9.2 mph - -   Partly Cloudy
4:00 PM 96.8 °F 37.4 °F 13% 30.09 in 6.2 mi WNW 9.2 mph - N/A   Scattered Clouds
6:00 PM 93.2 °F 35.6 °F 13% 30.06 in 6.2 mi WSW 2.3 mph - N/A   Mostly Cloudy
7:00 PM 92 °F 40 °F 9%  in 6 mi Calm Calm - -   Mostly Cloudy
7:00 PM 91.4 °F 41.0 °F 17% 30.06 in 6.2 mi Calm Calm - N/A   Mostly Cloudy
8:00 PM 86.0 °F 39.2 °F 19% 30.06 in 3.1 mi WSW 23.0 mph 34.5 mph N/A   Mostly Cloudy
8:45 PM 86.0 °F 39.2 °F 19% 30.06 in 6.2 mi West 20.7 mph - N/A   Mostly Cloudy
9:00 PM 77.0 °F 53.6 °F 44% 30.12 in 6.2 mi West 20.7 mph - N/A   Mostly Cloudy
10:00 PM 77.0 °F 55.4 °F 47% 30.12 in 6.2 mi North 13.8 mph - N/A   Mostly Cloudy
11:00 PM 77.0 °F 53.6 °F 44% 30.09 in 6.2 mi North 13.8 mph - N/A   Mostly Cloudy